Terminal Aerodrome Forecast
Issued by NWS Wilmington, OH

Current Version | Previous Version | Graphics & Text | Print | Product List | Glossary On
Versions: 1 2 3 4 5 6 7 8 9 10 11 12 13 14 15 16 17 18 19 20 21 22 23 24 25
000
FTUS41 KILN 062000 AAA
TAFCVG
TAF AMD
KCVG 062055Z 0621/0724 24007KT P6SM FEW040 SCT250
     FM070000 18005KT P6SM SCT250
     FM071300 23012KT P6SM BKN035 OVC250
     FM071700 23012KT P6SM VCTS BKN035CB OVC250=

USA.gov is the U.S. government's official web portal to all federal, state and local government web resources and services.